Home   Weather   Bloemfontein   Past weeks

Flag for South Africa Past Weather in Bloemfontein, South Africa — Yesterday and Last 2 Weeks

Now
61 °F

Cool.


Feels Like: 61 °F
Forecast: 55 / 69 °F
Wind: 8 mph from Northeast

Location: Bloemfontein Airport

Current Time: Feb 21, 2017 at 2:56:24 am

Latest Report: Feb 21, 2017 at 2:00 am


Visibility: N/A

Pressure: 30.04 "Hg (25.47 "Hg at 1397m altitude)

Humidity: 88%

Dew Point: 57 °F

Location of BloemfonteinLocation

Past Weather in Bloemfontein — Graph

°F

Bloemfontein Temperature Yesterday

Maximum temperature yesterday: 66 °F (at 10:00 am)
Minimum temperature yesterday: 61 °F (at 8:00 pm)
Average temperature yesterday: 63 °F

High & Low Weather Summary for the Past Weeks

 TemperatureHumidityPressure
High86 °F (Feb 9, 2:00 pm)100% (Feb 8, 2:00 am)30.27 "Hg (Feb 8, 2:00 am)
Low59 °F (Feb 11, 6:00 am)40% (Feb 8, 2:00 pm)30.01 "Hg (Feb 11, 5:14 pm)
Average70 °F79%30.13 "Hg
* Reported Feb 6 1:00 am — Feb 21 1:00 am, Bloemfontein, Weather by CustomWeather, © 2017

Note: Actual official high and low records may vary slightly from our data, if they occured in-between our weather recording intervals... More about our weather records

Advertising

Bloemfontein Weather History for the Previous 24 Hours

Scroll right to see more
 ConditionsComfort  
Time TempWeatherWind HumidityBarometerVisibility
1:00 am
Tue, Feb 21
61 °FLight rain. Overcast.7 mph88%30.07 "HgN/A
12:00 am61 °FCool.10 mph88%30.07 "HgN/A
11:00 pm
Mon, Feb 20
61 °FCool.12 mph94%30.07 "HgN/A
10:00 pm61 °FCool.12 mph94%30.07 "HgN/A
9:00 pm61 °FLight rain. Overcast.13 mph94%30.07 "HgN/A
8:07 pm63 °FMild.15 mph88%30.07 "HgN/A
8:00 pm61 °FPassing clouds.8 mph88%30.07 "HgN/A
7:00 pm63 °FPassing clouds.12 mph88%30.07 "HgN/A
6:00 pm63 °FPartly sunny.13 mph94%30.04 "HgN/A
5:00 pm64 °FPartly sunny.10 mph88%30.04 "HgN/A
4:39 pm64 °FPartly sunny.12 mph94%30.04 "HgN/A
4:00 pm63 °FLow clouds.10 mph100%30.04 "HgN/A
3:38 pm63 °FLight rain. Low clouds.9 mph100%30.04 "HgN/A
3:00 pm64 °FRain. Overcast.12 mph94%30.07 "Hg3 mi
2:00 pm63 °FRain. Overcast.7 mph94%30.07 "Hg4 mi
1:00 pm64 °FRain. Partly sunny.13 mph88%30.09 "Hg5 mi
12:00 pm66 °FPartly sunny.15 mph78%30.12 "HgN/A
11:00 am66 °FPartly sunny.10 mph78%30.12 "HgN/A
10:00 am66 °FPartly sunny.10 mph83%30.12 "HgN/A
9:00 am64 °FPartly sunny.9 mph88%30.12 "HgN/A
8:00 am64 °FScattered clouds.8 mph88%30.12 "HgN/A
7:00 am63 °FScattered clouds.7 mph94%30.12 "HgN/A
6:00 am63 °FScattered clouds.9 mph94%30.12 "HgN/A
5:00 am63 °FPassing clouds.9 mph88%30.12 "HgN/A
4:00 am63 °FMild.6 mph94%30.12 "HgN/A
3:00 am63 °FLight rain. Overcast.3 mph100%30.12 "HgN/A
2:00 am63 °FLight rain. Overcast.10 mph100%30.12 "HgN/A
Weather by CustomWeather, © 2017

See weather overviewHow to use our weather pages